EW4533 Weather Reports


time (UTC)temp
F
wind
direction
speed
knots
gust
knots
rain 1hr
in
rain 24hr
in
rain mn
in
humidity
%
barometer
mb
20260505081559 80 78 1.7 6.1 0.00 0.00 0.00 100 1015.3
20260505080050 80 88 1.7 7.8 0.00 0.00 0.00 100 1015.1
20260505074610 80 117 1.7 7.0 0.00 0.00 0.00 100 1015.1
20260505073054 80 113 2.6 7.0 0.00 0.00 0.00 100 1015.0
20260505071553 80 135 1.7 6.1 0.00 0.00 0.00 100 1014.9
20260505070055 80 110 1.7 5.2 0.00 0.00 0.00 100 1014.9
20260505064559 80 147 1.7 6.1 0.00 0.00 0.00 100 1015.0
20260505063058 80 145 1.7 5.2 0.00 0.00 0.00 100 1015.1
20260505061628 80 157 1.7 7.0 0.00 0.00 0.00 100 1015.2
20260505060058 80 96 1.7 7.0 0.00 0.00 0.00 100 1015.2
20260505054609 80 32 0.9 7.0 0.00 0.00 0.00 100 1015.2
20260505053056 80 141 0.9 4.3 0.00 0.00 0.00 100 1015.3
20260505051553 80 279 2.6 6.1 0.00 0.00 0.00 100 1015.6
20260505041554 80 48 1.7 5.2 0.00 0.00 0.00 100 1015.8
20260505040049 80 138 1.7 5.2 0.00 0.00 0.00 100 1016.0
20260505034551 80 133 1.7 6.1 0.00 0.00 0.00 100 1016.1
20260505033054 80 189 1.7 6.1 0.00 0.00 0.00 100 1016.3
20260505031558 80 147 2.6 5.2 0.00 0.00 0.00 100 1016.2
20260505030055 80 178 1.7 7.0 0.00 0.00 0.00 100 1016.3
20260505024608 80 142 1.7 5.2 0.00 0.00 0.00 100 1016.2
20260505023051 80 117 0.0 4.3 0.00 0.00 0.00 100 1016.2
20260505021609 80 90 0.9 6.1 0.00 0.00 0.00 100 1016.1
20260505020049 80 0 1.7 4.3 0.00 0.00 0.00 100 1016.0
20260505014549 80 143 0.9 4.3 0.00 0.00 0.00 100 1016.0
20260505013056 80 144 0.9 4.3 0.00 0.00 0.00 100 1015.9
20260505011557 80 104 0.9 5.2 0.00 0.00 0.00 100 1015.9
20260505010052 80 148 0.9 4.3 0.00 0.00 0.00 100 1015.8
20260505004550 80 91 1.7 5.2 0.00 0.00 0.00 100 1015.8
20260505003047 80 72 0.9 4.3 0.00 0.00 0.00 100 1015.5
20260505001546 80 27 1.7 4.3 0.00 0.00 0.00 100 1015.3
20260505000051 81 108 1.7 6.1 0.00 0.00 0.00 100 1015.2
20260504234551 81 0 1.7 7.8 0.00 0.00 0.00 100 1015.0
20260504233059 81 146 2.6 7.0 0.00 0.00 0.00 100 1014.8
20260504231549 80 20 1.7 6.1 0.00 0.00 0.00 100 1014.6
20260504230050 81 145 0.9 4.3 0.00 0.00 0.00 100 1014.4
20260504224548 81 99 1.7 9.6 0.00 0.00 0.00 100 1014.4
20260504223103 81 113 0.9 5.2 0.00 0.00 0.00 100 1014.4
20260504221558 81 142 0.9 5.2 0.00 0.00 0.00 100 1014.3
20260504220118 81 0 1.7 6.1 0.00 0.00 0.00 100 1014.3
20260504214551 81 82 0.9 7.0 0.00 0.00 0.00 100 1014.2
20260504213102 81 84 1.7 7.8 0.00 0.00 0.00 100 1014.0
20260504211554 82 72 1.7 6.1 0.00 0.00 0.00 100 1013.9
20260504210059 82 148 1.7 6.1 0.00 0.00 0.00 100 1013.9
20260504204604 82 153 0.9 7.0 0.00 0.00 0.00 100 1014.0
20260504203050 83 0 2.6 7.0 0.00 0.00 0.00 100 1013.9
20260504201603 83 103 1.7 8.7 0.00 0.00 0.00 100 1013.9
20260504194552 84 221 3.5 7.8 0.00 0.00 0.00 100 1014.2
20260504193049 84 141 2.6 7.0 0.00 0.00 0.00 100 1014.3
20260504191551 84 101 2.6 9.6 0.00 0.00 0.00 100 1014.4
20260504190047 84 109 3.5 7.8 0.00 0.00 0.00 100 1014.7
20260504184556 85 34 2.6 7.8 0.00 0.00 0.00 100 1014.9
20260504183045 85 134 3.5 7.0 0.00 0.00 0.00 100 1014.9
20260504181554 85 134 2.6 7.8 0.00 0.00 0.00 100 1014.9
20260504180052 86 86 1.7 8.7 0.00 0.00 0.00 100 1015.1
20260504174550 85 144 3.5 7.8 0.00 0.00 0.00 100 1015.2
20260504173059 85 141 2.6 8.7 0.00 0.00 0.00 100 1015.3
20260504171548 86 51 2.6 7.0 0.00 0.00 0.00 100 1015.5
20260504100103 79 54 1.7 7.0 0.00 0.00 0.00 100 1015.4